Time,TemperatureF,DewpointF,PressureIn,WindDirection,WindDirectionDegrees,WindSpeedMPH,WindSpeedGustMPH,Humidity,HourlyPrecipIn,Conditions,Clouds,dailyrainin,SoftwareType,DateUTC
2013-06-19 00:02:00,62.6,60.8,30.27,NNW,334,5.8,-999.9,94,-99.99,,,-99.99,,2013-06-19 04:02:00,
2013-06-19 00:06:00,62.6,60.8,30.27,NNW,334,5.8,-999.9,94,-99.99,,,-99.99,,2013-06-19 04:06:00,
2013-06-19 00:08:00,62.6,60.8,30.27,NNW,334,5.8,-999.9,94,-99.99,,,-99.99,,2013-06-19 04:08:00,
2013-06-19 00:12:00,60.8,59.0,30.27,North,353,9.2,-999.9,94,-99.99,,,-99.99,,2013-06-19 04:12:00,
2013-06-19 00:18:00,60.8,59.0,30.27,North,353,9.2,-999.9,94,-99.99,,,-99.99,,2013-06-19 04:18:00,
2013-06-19 00:24:00,60.8,59.0,30.27,North,355,3.5,-999.9,94,-99.99,,,-99.99,,2013-06-19 04:24:00,
2013-06-19 00:30:00,60.8,59.0,30.27,North,355,3.5,-999.9,94,-99.99,,,-99.99,,2013-06-19 04:30:00,
2013-06-19 00:36:00,60.8,59.0,30.26,North,352,4.6,-999.9,94,-99.99,,,-99.99,,2013-06-19 04:36:00,
2013-06-19 00:42:00,60.8,59.0,30.26,NNW,338,6.9,-999.9,94,-99.99,,,-99.99,,2013-06-19 04:42:00,
2013-06-19 00:48:00,60.8,59.0,30.26,NNW,338,6.9,-999.9,94,-99.99,,,-99.99,,2013-06-19 04:48:00,
2013-06-19 00:54:00,60.8,59.0,30.26,NNW,346,3.5,-999.9,94,-99.99,,,-99.99,,2013-06-19 04:54:00,
2013-06-19 01:00:00,60.8,59.0,30.26,NNW,346,3.5,-999.9,94,-99.99,,,-99.99,,2013-06-19 05:00:00,
2013-06-19 01:06:00,60.8,59.0,30.26,NNW,346,3.5,-999.9,94,-99.99,,,-99.99,,2013-06-19 05:06:00,
2013-06-19 01:12:00,60.8,59.0,30.26,North,353,4.6,-999.9,94,-99.99,,,-99.99,,2013-06-19 05:12:00,
2013-06-19 01:18:00,60.8,59.0,30.26,North,353,4.6,-999.9,94,-99.99,,,-99.99,,2013-06-19 05:18:00,
2013-06-19 01:24:00,60.8,59.0,30.27,North,8,2.3,-999.9,94,-99.99,,,-99.99,,2013-06-19 05:24:00,
2013-06-19 01:30:00,60.8,59.0,30.27,North,8,2.3,-999.9,94,-99.99,,,-99.99,,2013-06-19 05:30:00,
2013-06-19 01:42:00,60.8,59.0,30.27,North,1,3.5,-999.9,94,-99.99,,,-99.99,,2013-06-19 05:42:00,
2013-06-19 01:48:00,60.8,59.0,30.27,North,1,3.5,-999.9,94,-99.99,,,-99.99,,2013-06-19 05:48:00,
2013-06-19 01:54:00,60.8,59.0,30.27,North,1,3.5,-999.9,94,-99.99,,,-99.99,,2013-06-19 05:54:00,
2013-06-19 02:00:00,60.8,59.0,30.27,North,1,3.5,-999.9,94,-99.99,,,-99.99,,2013-06-19 06:00:00,
2013-06-19 02:06:00,60.8,59.0,30.26,NNW,344,5.8,-999.9,94,-99.99,,,-99.99,,2013-06-19 06:06:00,
2013-06-19 02:12:00,60.8,59.0,30.26,North,353,2.3,-999.9,94,-99.99,,,-99.99,,2013-06-19 06:12:00,
2013-06-19 02:18:00,60.8,59.0,30.26,North,353,2.3,-999.9,94,-99.99,,,-99.99,,2013-06-19 06:18:00,
2013-06-19 02:24:00,60.8,59.0,30.27,North,4,3.5,-999.9,94,-99.99,,,-99.99,,2013-06-19 06:24:00,
2013-06-19 02:30:00,60.8,59.0,30.27,North,351,5.8,-999.9,94,-99.99,,,-99.99,,2013-06-19 06:30:00,
2013-06-19 02:36:00,60.8,59.0,30.27,North,351,5.8,-999.9,94,-99.99,,,-99.99,,2013-06-19 06:36:00,
2013-06-19 02:42:00,60.8,59.0,30.27,North,350,8.1,-999.9,94,-99.99,,,-99.99,,2013-06-19 06:42:00,
2013-06-19 02:48:00,60.8,59.0,30.27,North,350,8.1,-999.9,94,-99.99,,,-99.99,,2013-06-19 06:48:00,
2013-06-19 02:54:00,59.0,57.2,30.27,NNW,347,6.9,-999.9,94,-99.99,,,-99.99,,2013-06-19 06:54:00,
2013-06-19 03:00:00,59.0,57.2,30.27,NNW,347,6.9,-999.9,94,-99.99,,,-99.99,,2013-06-19 07:00:00,
2013-06-19 03:06:00,59.0,57.2,30.28,NNW,343,4.6,-999.9,94,-99.99,,,-99.99,,2013-06-19 07:06:00,
2013-06-19 03:12:00,59.0,57.2,30.28,NW,325,4.6,-999.9,94,-99.99,,,-99.99,,2013-06-19 07:12:00,
2013-06-19 03:18:00,59.0,57.2,30.28,NW,325,4.6,-999.9,94,-99.99,,,-99.99,,2013-06-19 07:18:00,
2013-06-19 03:24:00,59.0,57.2,30.28,WNW,296,1.2,-999.9,94,-99.99,,,-99.99,,2013-06-19 07:24:00,
2013-06-19 03:30:00,59.0,57.2,30.28,WNW,296,1.2,-999.9,94,-99.99,,,-99.99,,2013-06-19 07:30:00,
2013-06-19 03:36:00,59.0,57.2,30.28,North,358,6.9,-999.9,94,-99.99,,,-99.99,,2013-06-19 07:36:00,
2013-06-19 03:42:00,59.0,57.2,30.28,NNW,328,1.2,-999.9,94,-99.99,,,-99.99,,2013-06-19 07:42:00,
2013-06-19 03:48:00,59.0,57.2,30.28,NNW,328,1.2,-999.9,94,-99.99,,,-99.99,,2013-06-19 07:48:00,
2013-06-19 03:54:00,59.0,57.2,30.29,North,0,0.0,-999.9,94,-99.99,,,-99.99,,2013-06-19 07:54:00,
2013-06-19 04:00:00,59.0,57.2,30.29,North,0,0.0,-999.9,94,-99.99,,,-99.99,,2013-06-19 08:00:00,
2013-06-19 04:06:00,57.2,55.4,30.29,North,10,2.3,-999.9,94,-99.99,,,-99.99,,2013-06-19 08:06:00,
2013-06-19 04:12:00,57.2,55.4,30.29,North,0,0.0,-999.9,94,-99.99,,,-99.99,,2013-06-19 08:12:00,
2013-06-19 04:18:00,57.2,55.4,30.29,North,0,0.0,-999.9,94,-99.99,,,-99.99,,2013-06-19 08:18:00,
2013-06-19 04:24:00,57.2,53.6,30.29,NNW,333,2.3,-999.9,88,-99.99,,,-99.99,,2013-06-19 08:24:00,
2013-06-19 04:30:00,57.2,53.6,30.29,NNW,333,2.3,-999.9,88,-99.99,,,-99.99,,2013-06-19 08:30:00,
2013-06-19 04:36:00,57.2,53.6,30.29,North,351,3.5,-999.9,88,-99.99,,,-99.99,,2013-06-19 08:36:00,
2013-06-19 04:42:00,57.2,53.6,30.29,North,356,3.5,-999.9,88,-99.99,,,-99.99,,2013-06-19 08:42:00,
2013-06-19 04:48:00,57.2,53.6,30.29,North,356,3.5,-999.9,88,-99.99,,,-99.99,,2013-06-19 08:48:00,
2013-06-19 04:54:00,57.2,53.6,30.29,NNW,348,4.6,-999.9,88,-99.99,,,-99.99,,2013-06-19 08:54:00,
2013-06-19 05:00:00,57.2,53.6,30.29,NNW,348,4.6,-999.9,88,-99.99,,,-99.99,,2013-06-19 09:00:00,
2013-06-19 05:06:00,57.2,53.6,30.29,WNW,302,1.2,-999.9,88,-99.99,,,-99.99,,2013-06-19 09:06:00,
2013-06-19 05:12:00,59.0,55.4,30.30,NNE,19,4.6,-999.9,88,-99.99,,,-99.99,,2013-06-19 09:12:00,
2013-06-19 05:18:00,59.0,55.4,30.30,NNE,19,4.6,-999.9,88,-99.99,,,-99.99,,2013-06-19 09:18:00,
2013-06-19 05:24:00,57.2,53.6,30.30,NW,320,4.6,-999.9,88,-99.99,,,-99.99,,2013-06-19 09:24:00,
2013-06-19 05:30:00,57.2,53.6,30.30,NW,320,4.6,-999.9,88,-99.99,,,-99.99,,2013-06-19 09:30:00,
2013-06-19 05:36:00,57.2,53.6,30.30,North,355,2.3,-999.9,88,-99.99,,,-99.99,,2013-06-19 09:36:00,
2013-06-19 05:42:00,57.2,53.6,30.30,NNW,332,8.1,-999.9,88,-99.99,,,-99.99,,2013-06-19 09:42:00,
2013-06-19 05:48:00,57.2,53.6,30.30,NNW,332,8.1,-999.9,88,-99.99,,,-99.99,,2013-06-19 09:48:00,
2013-06-19 05:54:00,57.2,53.6,30.31,NNW,339,8.1,-999.9,88,-99.99,,,-99.99,,2013-06-19 09:54:00,
2013-06-19 06:00:00,57.2,53.6,30.31,NNW,339,8.1,-999.9,88,-99.99,,,-99.99,,2013-06-19 10:00:00,
2013-06-19 06:06:00,57.2,53.6,30.31,NNW,335,5.8,-999.9,88,-99.99,,,-99.99,,2013-06-19 10:06:00,
2013-06-19 06:12:00,57.2,53.6,30.31,NNW,342,4.6,-999.9,88,-99.99,,,-99.99,,2013-06-19 10:12:00,
2013-06-19 06:18:00,57.2,53.6,30.31,NNW,342,4.6,-999.9,88,-99.99,,,-99.99,,2013-06-19 10:18:00,
2013-06-19 06:24:00,57.2,53.6,30.32,North,349,9.2,-999.9,88,-99.99,,,-99.99,,2013-06-19 10:24:00,
2013-06-19 06:30:00,57.2,53.6,30.32,North,349,9.2,-999.9,88,-99.99,,,-99.99,,2013-06-19 10:30:00,
2013-06-19 06:36:00,59.0,53.6,30.32,NNW,347,5.8,-999.9,82,-99.99,,,-99.99,,2013-06-19 10:36:00,
2013-06-19 06:42:00,59.0,53.6,30.32,North,0,4.6,-999.9,82,-99.99,,,-99.99,,2013-06-19 10:42:00,
2013-06-19 06:48:00,59.0,53.6,30.32,North,0,4.6,-999.9,82,-99.99,,,-99.99,,2013-06-19 10:48:00,
2013-06-19 06:54:00,59.0,53.6,30.32,NW,308,2.3,-999.9,82,-99.99,,,-99.99,,2013-06-19 10:54:00,
2013-06-19 07:00:00,59.0,53.6,30.32,NW,308,2.3,-999.9,82,-99.99,,,-99.99,,2013-06-19 11:00:00,
2013-06-19 07:06:00,59.0,53.6,30.33,NNW,339,5.8,-999.9,82,-99.99,,,-99.99,,2013-06-19 11:06:00,
2013-06-19 07:12:00,59.0,51.8,30.33,North,359,6.9,-999.9,77,-99.99,,,-99.99,,2013-06-19 11:12:00,
2013-06-19 07:18:00,59.0,51.8,30.33,North,359,6.9,-999.9,77,-99.99,,,-99.99,,2013-06-19 11:18:00,
2013-06-19 07:24:00,59.0,51.8,30.34,NNW,334,8.1,-999.9,77,-99.99,,,-99.99,,2013-06-19 11:24:00,
2013-06-19 07:30:00,59.0,51.8,30.34,NNW,334,8.1,-999.9,77,-99.99,,,-99.99,,2013-06-19 11:30:00,
2013-06-19 07:36:00,59.0,51.8,30.35,North,350,5.8,-999.9,77,-99.99,,,-99.99,,2013-06-19 11:36:00,
2013-06-19 07:42:00,59.0,51.8,30.35,NNW,340,6.9,-999.9,77,-99.99,,,-99.99,,2013-06-19 11:42:00,
2013-06-19 07:48:00,59.0,51.8,30.35,NNW,340,6.9,-999.9,77,-99.99,,,-99.99,,2013-06-19 11:48:00,
2013-06-19 07:54:00,59.0,51.8,30.36,NNE,18,5.8,-999.9,77,-99.99,,,-99.99,,2013-06-19 11:54:00,
2013-06-19 08:00:00,59.0,51.8,30.36,NNE,18,5.8,-999.9,77,-99.99,,,-99.99,,2013-06-19 12:00:00,
2013-06-19 08:06:00,60.8,51.8,30.37,North,349,11.5,-999.9,72,-99.99,,,-99.99,,2013-06-19 12:06:00,
2013-06-19 08:12:00,60.8,51.8,30.37,North,1,6.9,-999.9,72,-99.99,,,-99.99,,2013-06-19 12:12:00,
2013-06-19 08:18:00,60.8,51.8,30.37,North,1,6.9,-999.9,72,-99.99,,,-99.99,,2013-06-19 12:18:00,
2013-06-19 08:24:00,60.8,50.0,30.37,North,356,8.1,-999.9,68,-99.99,,,-99.99,,2013-06-19 12:24:00,
2013-06-19 08:30:00,60.8,50.0,30.37,North,356,8.1,-999.9,68,-99.99,,,-99.99,,2013-06-19 12:30:00,
2013-06-19 08:36:00,62.6,51.8,30.37,North,357,4.6,-999.9,68,-99.99,,,-99.99,,2013-06-19 12:36:00,
2013-06-19 08:42:00,62.6,51.8,30.37,NNW,343,6.9,-999.9,68,-99.99,,,-99.99,,2013-06-19 12:42:00,
2013-06-19 08:48:00,62.6,51.8,30.37,NNW,343,6.9,-999.9,68,-99.99,,,-99.99,,2013-06-19 12:48:00,
2013-06-19 08:54:00,62.6,51.8,30.38,North,3,4.6,-999.9,68,-99.99,,,-99.99,,2013-06-19 12:54:00,
2013-06-19 09:00:00,62.6,51.8,30.38,North,3,4.6,-999.9,68,-99.99,,,-99.99,,2013-06-19 13:00:00,
2013-06-19 09:06:00,64.4,53.6,30.38,NNW,337,4.6,-999.9,68,-99.99,,,-99.99,,2013-06-19 13:06:00,
2013-06-19 09:12:00,64.4,51.8,30.38,NNW,338,5.8,-999.9,64,-99.99,,,-99.99,,2013-06-19 13:12:00,
2013-06-19 09:18:00,64.4,51.8,30.38,NNW,338,5.8,-999.9,64,-99.99,,,-99.99,,2013-06-19 13:18:00,
2013-06-19 09:24:00,64.4,50.0,30.38,North,4,5.8,-999.9,59,-99.99,,,-99.99,,2013-06-19 13:24:00,
2013-06-19 09:30:00,64.4,50.0,30.38,North,4,5.8,-999.9,59,-99.99,,,-99.99,,2013-06-19 13:30:00,
2013-06-19 09:36:00,66.2,51.8,30.38,North,3,3.5,-999.9,60,-99.99,,,-99.99,,2013-06-19 13:36:00,
2013-06-19 09:42:00,66.2,50.0,30.38,NNE,24,4.6,-999.9,56,-99.99,,,-99.99,,2013-06-19 13:42:00,
2013-06-19 09:48:00,66.2,50.0,30.38,NNE,24,4.6,-999.9,56,-99.99,,,-99.99,,2013-06-19 13:48:00,
2013-06-19 09:54:00,68.0,51.8,30.38,NE,40,2.3,-999.9,56,-99.99,,,-99.99,,2013-06-19 13:54:00,
2013-06-19 10:00:00,68.0,51.8,30.38,NE,40,2.3,-999.9,56,-99.99,,,-99.99,,2013-06-19 14:00:00,
2013-06-19 10:06:00,68.0,51.8,30.38,NE,40,2.3,-999.9,56,-99.99,,,-99.99,,2013-06-19 14:06:00,
2013-06-19 10:12:00,68.0,50.0,30.38,NNE,16,6.9,-999.9,52,-99.99,,,-99.99,,2013-06-19 14:12:00,
2013-06-19 10:18:00,68.0,50.0,30.38,NNE,16,6.9,-999.9,52,-99.99,,,-99.99,,2013-06-19 14:18:00,
2013-06-19 10:24:00,68.0,50.0,30.39,North,355,4.6,-999.9,52,-99.99,,,-99.99,,2013-06-19 14:24:00,
2013-06-19 10:30:00,68.0,50.0,30.39,North,355,4.6,-999.9,52,-99.99,,,-99.99,,2013-06-19 14:30:00,
2013-06-19 10:36:00,69.8,50.0,30.39,NNW,337,5.8,-999.9,49,-99.99,,,-99.99,,2013-06-19 14:36:00,
2013-06-19 10:42:00,69.8,50.0,30.39,NNW,340,3.5,-999.9,49,-99.99,,,-99.99,,2013-06-19 14:42:00,
2013-06-19 10:48:00,69.8,50.0,30.39,NNW,340,3.5,-999.9,49,-99.99,,,-99.99,,2013-06-19 14:48:00,
2013-06-19 10:54:00,69.8,50.0,30.39,NNE,17,5.8,-999.9,49,-99.99,,,-99.99,,2013-06-19 14:54:00,
2013-06-19 11:00:00,69.8,50.0,30.39,NNE,17,5.8,-999.9,49,-99.99,,,-99.99,,2013-06-19 15:00:00,
2013-06-19 11:06:00,69.8,50.0,30.39,North,350,9.2,-999.9,49,-99.99,,,-99.99,,2013-06-19 15:06:00,
2013-06-19 11:22:00,71.6,50.0,30.39,North,351,3.5,-999.9,46,-99.99,,,-99.99,,2013-06-19 15:22:00,
2013-06-19 11:28:00,71.6,50.0,30.39,North,351,3.5,-999.9,46,-99.99,,,-99.99,,2013-06-19 15:28:00,
2013-06-19 11:34:00,71.6,50.0,30.39,NNE,14,1.2,-999.9,46,-99.99,,,-99.99,,2013-06-19 15:34:00,
2013-06-19 11:40:00,71.6,50.0,30.39,NNE,14,1.2,-999.9,46,-99.99,,,-99.99,,2013-06-19 15:40:00,
2013-06-19 11:46:00,71.6,48.2,30.39,NNW,331,3.5,-999.9,43,-99.99,,,-99.99,,2013-06-19 15:46:00,
2013-06-19 11:52:00,73.4,48.2,30.39,NNW,336,4.6,-999.9,41,-99.99,,,-99.99,,2013-06-19 15:52:00,
2013-06-19 11:58:00,73.4,48.2,30.39,NNW,336,4.6,-999.9,41,-99.99,,,-99.99,,2013-06-19 15:58:00,
2013-06-19 12:04:00,73.4,48.2,30.39,WNW,299,3.5,-999.9,41,-99.99,,,-99.99,,2013-06-19 16:04:00,
2013-06-19 12:10:00,73.4,48.2,30.39,WNW,299,3.5,-999.9,41,-99.99,,,-99.99,,2013-06-19 16:10:00,
2013-06-19 12:16:00,71.6,48.2,30.39,NNW,337,3.5,-999.9,43,-99.99,,,-99.99,,2013-06-19 16:16:00,
2013-06-19 12:22:00,73.4,48.2,30.39,North,6,5.8,-999.9,41,-99.99,,,-99.99,,2013-06-19 16:22:00,
2013-06-19 12:28:00,73.4,48.2,30.39,North,6,5.8,-999.9,41,-99.99,,,-99.99,,2013-06-19 16:28:00,
2013-06-19 12:34:00,73.4,46.4,30.39,North,4,8.1,-999.9,38,-99.99,,,-99.99,,2013-06-19 16:34:00,
2013-06-19 12:40:00,73.4,46.4,30.39,North,4,8.1,-999.9,38,-99.99,,,-99.99,,2013-06-19 16:40:00,
2013-06-19 12:46:00,73.4,46.4,30.39,NNE,18,9.2,-999.9,38,-99.99,,,-99.99,,2013-06-19 16:46:00,
2013-06-19 12:52:00,73.4,44.6,30.39,NNE,13,0.0,-999.9,36,-99.99,,,-99.99,,2013-06-19 16:52:00,
2013-06-19 12:58:00,73.4,44.6,30.39,NNE,13,0.0,-999.9,36,-99.99,,,-99.99,,2013-06-19 16:58:00,
2013-06-19 13:04:00,73.4,46.4,30.40,North,3,6.9,-999.9,38,-99.99,,,-99.99,,2013-06-19 17:04:00,
2013-06-19 13:10:00,73.4,46.4,30.40,North,3,6.9,-999.9,38,-99.99,,,-99.99,,2013-06-19 17:10:00,
2013-06-19 13:16:00,73.4,42.8,30.40,North,351,6.9,-999.9,33,-99.99,,,-99.99,,2013-06-19 17:16:00,
2013-06-19 13:22:00,75.2,46.4,30.39,North,9,5.8,-999.9,36,-99.99,,,-99.99,,2013-06-19 17:22:00,
2013-06-19 13:28:00,75.2,46.4,30.39,North,9,5.8,-999.9,36,-99.99,,,-99.99,,2013-06-19 17:28:00,
2013-06-19 13:34:00,75.2,44.6,30.39,ENE,77,1.2,-999.9,34,-99.99,,,-99.99,,2013-06-19 17:34:00,
2013-06-19 13:40:00,75.2,44.6,30.39,ENE,77,1.2,-999.9,34,-99.99,,,-99.99,,2013-06-19 17:40:00,
2013-06-19 13:46:00,75.2,44.6,30.39,ENE,77,1.2,-999.9,34,-99.99,,,-99.99,,2013-06-19 17:46:00,
2013-06-19 13:52:00,75.2,44.6,30.39,NNE,12,2.3,-999.9,34,-99.99,,,-99.99,,2013-06-19 17:52:00,
2013-06-19 13:58:00,75.2,44.6,30.39,NNE,12,2.3,-999.9,34,-99.99,,,-99.99,,2013-06-19 17:58:00,
2013-06-19 14:04:00,75.2,44.6,30.39,NE,48,3.5,-999.9,34,-99.99,,,-99.99,,2013-06-19 18:04:00,
2013-06-19 14:10:00,75.2,44.6,30.39,NE,48,3.5,-999.9,34,-99.99,,,-99.99,,2013-06-19 18:10:00,
2013-06-19 14:16:00,75.2,44.6,30.39,NNW,341,5.8,-999.9,34,-99.99,,,-99.99,,2013-06-19 18:16:00,
2013-06-19 14:22:00,75.2,41.0,30.39,NW,321,2.3,-999.9,29,-99.99,,,-99.99,,2013-06-19 18:22:00,
2013-06-19 14:28:00,75.2,41.0,30.39,NW,321,2.3,-999.9,29,-99.99,,,-99.99,,2013-06-19 18:28:00,
2013-06-19 14:34:00,75.2,42.8,30.39,NW,321,3.5,-999.9,31,-99.99,,,-99.99,,2013-06-19 18:34:00,
2013-06-19 14:40:00,75.2,42.8,30.39,NW,321,3.5,-999.9,31,-99.99,,,-99.99,,2013-06-19 18:40:00,
2013-06-19 14:46:00,77.0,44.6,30.39,North,356,8.1,-999.9,32,-99.99,,,-99.99,,2013-06-19 18:46:00,
2013-06-19 14:52:00,77.0,46.4,30.39,North,2,2.3,-999.9,34,-99.99,,,-99.99,,2013-06-19 18:52:00,
2013-06-19 14:58:00,77.0,46.4,30.39,North,2,2.3,-999.9,34,-99.99,,,-99.99,,2013-06-19 18:58:00,
2013-06-19 15:04:00,77.0,46.4,30.39,ENE,71,0.0,-999.9,34,-99.99,,,-99.99,,2013-06-19 19:04:00,
2013-06-19 15:10:00,77.0,46.4,30.39,ENE,71,0.0,-999.9,34,-99.99,,,-99.99,,2013-06-19 19:10:00,
2013-06-19 15:16:00,77.0,48.2,30.39,North,0,0.0,-999.9,36,-99.99,,,-99.99,,2013-06-19 19:16:00,
2013-06-19 15:22:00,77.0,46.4,30.39,ENE,69,3.5,-999.9,34,-99.99,,,-99.99,,2013-06-19 19:22:00,
2013-06-19 15:28:00,77.0,46.4,30.39,ENE,69,3.5,-999.9,34,-99.99,,,-99.99,,2013-06-19 19:28:00,
2013-06-19 15:34:00,77.0,46.4,30.39,SE,126,2.3,-999.9,34,-99.99,,,-99.99,,2013-06-19 19:34:00,
2013-06-19 15:40:00,77.0,46.4,30.39,SE,126,2.3,-999.9,34,-99.99,,,-99.99,,2013-06-19 19:40:00,
2013-06-19 15:46:00,75.2,44.6,30.40,NNW,345,4.6,-999.9,34,-99.99,,,-99.99,,2013-06-19 19:46:00,
2013-06-19 15:52:00,75.2,48.2,30.39,North,0,0.0,-999.9,38,-99.99,,,-99.99,,2013-06-19 19:52:00,
2013-06-19 15:58:00,75.2,48.2,30.39,North,0,0.0,-999.9,38,-99.99,,,-99.99,,2013-06-19 19:58:00,
2013-06-19 16:04:00,75.2,46.4,30.39,North,0,0.0,-999.9,36,-99.99,,,-99.99,,2013-06-19 20:04:00,
2013-06-19 16:10:00,75.2,46.4,30.39,North,0,0.0,-999.9,36,-99.99,,,-99.99,,2013-06-19 20:10:00,
2013-06-19 16:16:00,75.2,46.4,30.39,North,0,0.0,-999.9,36,-99.99,,,-99.99,,2013-06-19 20:16:00,
2013-06-19 16:22:00,77.0,48.2,30.39,NNE,25,1.2,-999.9,36,-99.99,,,-99.99,,2013-06-19 20:22:00,
2013-06-19 16:28:00,77.0,48.2,30.39,NNE,25,1.2,-999.9,36,-99.99,,,-99.99,,2013-06-19 20:28:00,
2013-06-19 16:34:00,75.2,46.4,30.39,ENE,69,2.3,-999.9,36,-99.99,,,-99.99,,2013-06-19 20:34:00,
2013-06-19 16:40:00,75.2,46.4,30.39,ENE,69,2.3,-999.9,36,-99.99,,,-99.99,,2013-06-19 20:40:00,
2013-06-19 16:46:00,75.2,44.6,30.39,North,0,0.0,-999.9,34,-99.99,,,-99.99,,2013-06-19 20:46:00,
2013-06-19 16:52:00,75.2,44.6,30.39,North,0,0.0,-999.9,34,-99.99,,,-99.99,,2013-06-19 20:52:00,
2013-06-19 16:58:00,75.2,44.6,30.39,North,0,0.0,-999.9,34,-99.99,,,-99.99,,2013-06-19 20:58:00,
2013-06-19 17:04:00,75.2,46.4,30.39,North,9,1.2,-999.9,36,-99.99,,,-99.99,,2013-06-19 21:04:00,
2013-06-19 17:10:00,75.2,46.4,30.39,North,9,1.2,-999.9,36,-99.99,,,-99.99,,2013-06-19 21:10:00,
2013-06-19 17:16:00,75.2,46.4,30.39,North,9,1.2,-999.9,36,-99.99,,,-99.99,,2013-06-19 21:16:00,
2013-06-19 17:22:00,75.2,46.4,30.39,SSE,168,0.0,-999.9,36,-99.99,,,-99.99,,2013-06-19 21:22:00,
2013-06-19 17:28:00,75.2,46.4,30.39,SSE,168,0.0,-999.9,36,-99.99,,,-99.99,,2013-06-19 21:28:00,
2013-06-19 17:34:00,75.2,46.4,30.39,East,89,4.6,-999.9,36,-99.99,,,-99.99,,2013-06-19 21:34:00,
2013-06-19 17:40:00,75.2,46.4,30.39,East,89,4.6,-999.9,36,-99.99,,,-99.99,,2013-06-19 21:40:00,
2013-06-19 17:46:00,75.2,48.2,30.39,ENE,64,1.2,-999.9,38,-99.99,,,-99.99,,2013-06-19 21:46:00,
2013-06-19 17:52:00,75.2,46.4,30.39,NNW,343,3.5,-999.9,36,-99.99,,,-99.99,,2013-06-19 21:52:00,
2013-06-19 17:58:00,75.2,46.4,30.39,NNW,343,3.5,-999.9,36,-99.99,,,-99.99,,2013-06-19 21:58:00,
2013-06-19 18:04:00,75.2,48.2,30.39,SE,136,3.5,-999.9,38,-99.99,,,-99.99,,2013-06-19 22:04:00,
2013-06-19 18:10:00,75.2,48.2,30.39,SE,136,3.5,-999.9,38,-99.99,,,-99.99,,2013-06-19 22:10:00,
2013-06-19 18:16:00,75.2,48.2,30.39,NNW,343,0.0,-999.9,38,-99.99,,,-99.99,,2013-06-19 22:16:00,
2013-06-19 18:22:00,75.2,48.2,30.39,North,0,0.0,-999.9,38,-99.99,,,-99.99,,2013-06-19 22:22:00,
2013-06-19 18:28:00,75.2,48.2,30.39,North,0,0.0,-999.9,38,-99.99,,,-99.99,,2013-06-19 22:28:00,
2013-06-19 18:34:00,75.2,50.0,30.39,North,0,0.0,-999.9,41,-99.99,,,-99.99,,2013-06-19 22:34:00,
2013-06-19 18:40:00,75.2,50.0,30.39,North,0,0.0,-999.9,41,-99.99,,,-99.99,,2013-06-19 22:40:00,
2013-06-19 18:46:00,73.4,48.2,30.40,North,0,0.0,-999.9,41,-99.99,,,-99.99,,2013-06-19 22:46:00,
2013-06-19 18:52:00,73.4,48.2,30.40,North,0,0.0,-999.9,41,-99.99,,,-99.99,,2013-06-19 22:52:00,
2013-06-19 18:58:00,73.4,48.2,30.40,North,0,0.0,-999.9,41,-99.99,,,-99.99,,2013-06-19 22:58:00,
2013-06-19 19:04:00,73.4,48.2,30.40,North,0,0.0,-999.9,41,-99.99,,,-99.99,,2013-06-19 23:04:00,
2013-06-19 19:10:00,73.4,48.2,30.40,North,0,0.0,-999.9,41,-99.99,,,-99.99,,2013-06-19 23:10:00,
2013-06-19 19:16:00,73.4,50.0,30.40,North,0,0.0,-999.9,44,-99.99,,,-99.99,,2013-06-19 23:16:00,
2013-06-19 19:22:00,71.6,50.0,30.41,North,0,0.0,-999.9,46,-99.99,,,-99.99,,2013-06-19 23:22:00,
2013-06-19 19:28:00,71.6,50.0,30.41,North,0,0.0,-999.9,46,-99.99,,,-99.99,,2013-06-19 23:28:00,
2013-06-19 19:34:00,71.6,50.0,30.41,North,0,0.0,-999.9,46,-99.99,,,-99.99,,2013-06-19 23:34:00,
2013-06-19 19:40:00,71.6,50.0,30.41,North,0,0.0,-999.9,46,-99.99,,,-99.99,,2013-06-19 23:40:00,
2013-06-19 19:46:00,71.6,51.8,30.42,North,0,0.0,-999.9,50,-99.99,,,-99.99,,2013-06-19 23:46:00,
2013-06-19 19:52:00,71.6,51.8,30.42,North,0,0.0,-999.9,50,-99.99,,,-99.99,,2013-06-19 23:52:00,
2013-06-19 19:58:00,71.6,51.8,30.42,North,0,0.0,-999.9,50,-99.99,,,-99.99,,2013-06-19 23:58:00,
2013-06-19 20:04:00,69.8,51.8,30.42,North,0,0.0,-999.9,53,-99.99,,,-99.99,,2013-06-20 00:04:00,
2013-06-19 20:10:00,69.8,51.8,30.42,North,0,0.0,-999.9,53,-99.99,,,-99.99,,2013-06-20 00:10:00,
2013-06-19 21:02:00,64.4,53.6,30.45,North,0,0.0,-999.9,68,-99.99,,,-99.99,,2013-06-20 01:02:00,
2013-06-19 21:08:00,64.4,53.6,30.45,North,0,0.0,-999.9,68,-99.99,,,-99.99,,2013-06-20 01:08:00,
2013-06-19 21:14:00,64.4,55.4,30.45,North,0,0.0,-999.9,73,-99.99,,,-99.99,,2013-06-20 01:14:00,
2013-06-19 21:20:00,64.4,55.4,30.45,North,0,0.0,-999.9,73,-99.99,,,-99.99,,2013-06-20 01:20:00,
2013-06-19 21:26:00,64.4,55.4,30.45,North,0,0.0,-999.9,73,-99.99,,,-99.99,,2013-06-20 01:26:00,
2013-06-19 21:32:00,62.6,53.6,30.46,North,0,0.0,-999.9,72,-99.99,,,-99.99,,2013-06-20 01:32:00,
2013-06-19 21:38:00,62.6,53.6,30.46,North,0,0.0,-999.9,72,-99.99,,,-99.99,,2013-06-20 01:38:00,
2013-06-19 21:44:00,62.6,55.4,30.47,North,0,0.0,-999.9,77,-99.99,,,-99.99,,2013-06-20 01:44:00,
2013-06-19 21:50:00,62.6,55.4,30.47,North,0,0.0,-999.9,77,-99.99,,,-99.99,,2013-06-20 01:50:00,
2013-06-19 21:56:00,62.6,53.6,30.47,North,0,0.0,-999.9,72,-99.99,,,-99.99,,2013-06-20 01:56:00,
2013-06-19 22:02:00,62.6,55.4,30.48,North,0,0.0,-999.9,77,-99.99,,,-99.99,,2013-06-20 02:02:00,
2013-06-19 22:08:00,62.6,55.4,30.48,North,0,0.0,-999.9,77,-99.99,,,-99.99,,2013-06-20 02:08:00,
2013-06-19 22:14:00,60.8,55.4,30.48,North,0,0.0,-999.9,82,-99.99,,,-99.99,,2013-06-20 02:14:00,
2013-06-19 22:20:00,60.8,55.4,30.48,North,0,0.0,-999.9,82,-99.99,,,-99.99,,2013-06-20 02:20:00,
2013-06-19 22:26:00,60.8,55.4,30.49,North,0,0.0,-999.9,82,-99.99,,,-99.99,,2013-06-20 02:26:00,
2013-06-19 22:32:00,60.8,55.4,30.49,North,0,0.0,-999.9,82,-99.99,,,-99.99,,2013-06-20 02:32:00,
2013-06-19 22:38:00,60.8,55.4,30.49,North,0,0.0,-999.9,82,-99.99,,,-99.99,,2013-06-20 02:38:00,
2013-06-19 22:44:00,59.0,55.4,30.50,North,0,0.0,-999.9,88,-99.99,,,-99.99,,2013-06-20 02:44:00,
2013-06-19 22:50:00,59.0,55.4,30.50,North,0,0.0,-999.9,88,-99.99,,,-99.99,,2013-06-20 02:50:00,
2013-06-19 22:56:00,59.0,55.4,30.50,North,0,0.0,-999.9,88,-99.99,,,-99.99,,2013-06-20 02:56:00,
2013-06-19 23:02:00,59.0,55.4,30.50,North,0,0.0,-999.9,88,-99.99,,,-99.99,,2013-06-20 03:02:00,
2013-06-19 23:08:00,59.0,55.4,30.50,North,0,0.0,-999.9,88,-99.99,,,-99.99,,2013-06-20 03:08:00,
2013-06-19 23:14:00,59.0,55.4,30.50,North,0,0.0,-999.9,88,-99.99,,,-99.99,,2013-06-20 03:14:00,
2013-06-19 23:20:00,59.0,55.4,30.50,North,0,0.0,-999.9,88,-99.99,,,-99.99,,2013-06-20 03:20:00,
2013-06-19 23:26:00,60.8,55.4,30.51,NNW,334,1.2,-999.9,82,-99.99,,,-99.99,,2013-06-20 03:26:00,
2013-06-19 23:32:00,60.8,55.4,30.51,NNW,331,4.6,-999.9,82,-99.99,,,-99.99,,2013-06-20 03:32:00,
2013-06-19 23:38:00,60.8,55.4,30.51,NNW,331,4.6,-999.9,82,-99.99,,,-99.99,,2013-06-20 03:38:00,
2013-06-19 23:44:00,60.8,55.4,30.52,North,1,2.3,-999.9,82,-99.99,,,-99.99,,2013-06-20 03:44:00,
2013-06-19 23:50:00,60.8,55.4,30.52,North,1,2.3,-999.9,82,-99.99,,,-99.99,,2013-06-20 03:50:00,
2013-06-19 23:56:00,60.8,55.4,30.52,NNW,334,1.2,-999.9,82,-99.99,,,-99.99,,2013-06-20 03:56:00,